TEJ507 SAME-SCEL

Flight info

Callsign TEJ507
Flight time 0h 32m
Altitude 28000
Route UMKAL2G UMKAL UMKAL7C
Aircraft A320/M-SDE3FGHIRWY/LB1

Departure

Time 2026-05-06 00:24
Airport Governor Francisco Gabrielli International Airport (SAME)

Arrival

Time 2026-05-06 00:57
Airport Comodoro Arturo Merino Benítez International Airport (SCEL)
Time Latitude Longitude Altitude Speed Heading
2026-05-06 00:04 -32.82801 -68.79779 2377 ft 0 kts 271°
2026-05-06 00:15 -32.82802 -68.79758 2381 ft 4 kts 271°
2026-05-06 00:16 -32.82801 -68.79727 2381 ft 4 kts 253°
2026-05-06 00:16 -32.82790 -68.79709 2386 ft 3 kts 185°
2026-05-06 00:16 -32.82764 -68.79707 2384 ft 2 kts 181°
2026-05-06 00:16 -32.82763 -68.79707 2384 ft 0 kts 181°
2026-05-06 00:19 -32.82772 -68.79705 2382 ft 5 kts 158°
2026-05-06 00:19 -32.82755 -68.79689 2384 ft 8 kts 352°
2026-05-06 00:19 -32.82677 -68.79665 2383 ft 10 kts 71°
2026-05-06 00:20 -32.82674 -68.79587 2382 ft 11 kts 73°
2026-05-06 00:20 -32.82633 -68.79508 2383 ft 12 kts 26°
2026-05-06 00:20 -32.82538 -68.79502 2384 ft 15 kts
2026-05-06 00:20 -32.82423 -68.79501 2381 ft 18 kts
2026-05-06 00:21 -32.82291 -68.79497 2381 ft 20 kts
2026-05-06 00:21 -32.82139 -68.79493 2381 ft 23 kts
2026-05-06 00:21 -32.81981 -68.79491 2384 ft 16 kts
2026-05-06 00:21 -32.81931 -68.79397 2381 ft 12 kts 86°
2026-05-06 00:22 -32.81931 -68.79361 2380 ft 4 kts 90°
2026-05-06 00:22 -32.81931 -68.79330 2380 ft 1 kts 90°
2026-05-06 00:22 -32.81932 -68.79310 2378 ft 4 kts 94°
2026-05-06 00:22 -32.81951 -68.79274 2381 ft 6 kts 144°
2026-05-06 00:23 -32.81987 -68.79267 2379 ft 0 kts 180°
2026-05-06 00:23 -32.82190 -68.79270 2380 ft 67 kts 181°
2026-05-06 00:24 -32.82885 -68.79286 2387 ft 129 kts 181°
2026-05-06 00:24 -32.83936 -68.79301 2539 ft 162 kts 180°
2026-05-06 00:24 -32.85093 -68.79279 3112 ft 168 kts 180°
2026-05-06 00:24 -32.86277 -68.79288 3756 ft 178 kts 181°
2026-05-06 00:25 -32.87586 -68.79316 4081 ft 200 kts 181°
2026-05-06 00:25 -32.89073 -68.79345 4437 ft 226 kts 180°
2026-05-06 00:25 -32.90721 -68.79283 4897 ft 250 kts 167°
2026-05-06 00:25 -32.92275 -68.78233 5412 ft 270 kts 130°
2026-05-06 00:26 -32.93096 -68.76212 6238 ft 277 kts 101°
2026-05-06 00:26 -32.93346 -68.73920 7088 ft 282 kts 92°
2026-05-06 00:26 -32.93434 -68.71715 7864 ft 290 kts 90°
2026-05-06 00:26 -32.93553 -68.69287 8642 ft 298 kts 92°
2026-05-06 00:27 -32.93762 -68.66796 9408 ft 306 kts 95°
2026-05-06 00:27 -32.94070 -68.64249 10062 ft 318 kts 97°
2026-05-06 00:27 -32.94468 -68.61561 10316 ft 342 kts 98°
2026-05-06 00:27 -32.94926 -68.58710 10655 ft 359 kts 96°
2026-05-06 00:28 -32.94858 -68.55690 10931 ft 370 kts 74°
2026-05-06 00:28 -32.93885 -68.52877 11512 ft 368 kts 52°
2026-05-06 00:28 -32.92173 -68.50658 12181 ft 363 kts 32°
2026-05-06 00:28 -32.89967 -68.49286 12889 ft 356 kts 12°
2026-05-06 00:29 -32.87546 -68.48907 13608 ft 350 kts 353°
2026-05-06 00:29 -32.85193 -68.49524 14270 ft 346 kts 335°
2026-05-06 00:29 -32.83185 -68.51002 14941 ft 345 kts 317°
2026-05-06 00:29 -32.81672 -68.53200 15618 ft 346 kts 300°
2026-05-06 00:30 -32.80842 -68.55889 16307 ft 351 kts 282°
2026-05-06 00:30 -32.80801 -68.58813 17042 ft 358 kts 266°
2026-05-06 00:30 -32.81151 -68.61754 17815 ft 360 kts 266°
2026-05-06 00:30 -32.81517 -68.64714 18547 ft 362 kts 266°
2026-05-06 00:31 -32.81886 -68.67677 19233 ft 363 kts 266°
2026-05-06 00:31 -32.82253 -68.70670 19929 ft 365 kts 266°
2026-05-06 00:31 -32.82611 -68.73630 20594 ft 367 kts 266°
2026-05-06 00:31 -32.82971 -68.76646 21236 ft 369 kts 266°
2026-05-06 00:32 -32.83301 -68.79676 21839 ft 369 kts 270°
2026-05-06 00:32 -32.83421 -68.82736 22417 ft 371 kts 271°
2026-05-06 00:32 -32.83531 -68.85814 22985 ft 373 kts 271°
2026-05-06 00:32 -32.83638 -68.88791 23505 ft 375 kts 271°
2026-05-06 00:33 -32.83752 -68.91902 23934 ft 377 kts 271°
2026-05-06 00:33 -32.83865 -68.95020 24384 ft 379 kts 271°
2026-05-06 00:33 -32.83973 -68.98120 24851 ft 379 kts 271°
2026-05-06 00:33 -32.84083 -69.01258 25296 ft 380 kts 271°
2026-05-06 00:34 -32.84195 -69.04407 25712 ft 382 kts 271°
2026-05-06 00:34 -32.84307 -69.07561 26105 ft 383 kts 271°
2026-05-06 00:34 -32.84417 -69.10728 26561 ft 384 kts 271°
2026-05-06 00:34 -32.84524 -69.13905 27000 ft 385 kts 272°
2026-05-06 00:35 -32.84627 -69.17096 27441 ft 386 kts 271°
2026-05-06 00:35 -32.84750 -69.20293 27828 ft 387 kts 271°
2026-05-06 00:35 -32.84898 -69.23486 27918 ft 386 kts 271°
2026-05-06 00:35 -32.85061 -69.26675 27929 ft 386 kts 271°
2026-05-06 00:36 -32.85227 -69.29861 27943 ft 386 kts 271°
2026-05-06 00:36 -32.85390 -69.33052 27954 ft 386 kts 271°
2026-05-06 00:36 -32.85547 -69.36230 27961 ft 384 kts 271°
2026-05-06 00:36 -32.85698 -69.39393 27969 ft 383 kts 271°
2026-05-06 00:37 -32.85842 -69.42519 27975 ft 383 kts 271°
2026-05-06 00:37 -32.85987 -69.45679 27983 ft 382 kts 271°
2026-05-06 00:37 -32.86131 -69.48835 27984 ft 381 kts 271°
2026-05-06 00:37 -32.86273 -69.51968 27997 ft 378 kts 271°
2026-05-06 00:38 -32.86412 -69.55094 28018 ft 378 kts 271°
2026-05-06 00:38 -32.86681 -69.61343 28046 ft 377 kts 271°
2026-05-06 00:39 -32.86955 -69.67569 28070 ft 375 kts 271°
2026-05-06 00:39 -32.87231 -69.73748 28091 ft 374 kts 271°
2026-05-06 00:40 -32.87497 -69.79911 28097 ft 372 kts 271°
2026-05-06 00:40 -32.87752 -69.86036 28084 ft 369 kts 271°
2026-05-06 00:41 -32.88006 -69.92169 28096 ft 370 kts 271°
2026-05-06 00:41 -32.88257 -69.98230 28091 ft 370 kts 271°
2026-05-06 00:42 -32.87943 -70.04288 28095 ft 367 kts 279°
2026-05-06 00:42 -32.87402 -70.10184 28085 ft 366 kts 279°
2026-05-06 00:43 -32.86872 -70.16055 27946 ft 338 kts 279°
2026-05-06 00:43 -32.86631 -70.18731 27769 ft 314 kts 279°
2026-05-06 00:43 -32.86401 -70.21258 27130 ft 303 kts 280°
2026-05-06 00:43 -32.86172 -70.23731 26605 ft 298 kts 280°
2026-05-06 00:44 -32.85941 -70.26170 25831 ft 297 kts 280°
2026-05-06 00:44 -32.85709 -70.28606 25058 ft 295 kts 279°
2026-05-06 00:44 -32.85481 -70.31029 24263 ft 295 kts 280°
2026-05-06 00:44 -32.85255 -70.33451 23470 ft 295 kts 280°
2026-05-06 00:45 -32.85028 -70.35873 22583 ft 295 kts 280°
2026-05-06 00:45 -32.84809 -70.38197 21662 ft 294 kts 281°
2026-05-06 00:45 -32.84574 -70.40663 20474 ft 305 kts 281°
2026-05-06 00:45 -32.84334 -70.43187 19293 ft 312 kts 281°
2026-05-06 00:46 -32.84087 -70.45764 18049 ft 323 kts 281°
2026-05-06 00:46 -32.83849 -70.48344 17698 ft 302 kts 281°
2026-05-06 00:46 -32.83639 -70.50684 17234 ft 290 kts 281°
2026-05-06 00:46 -32.83425 -70.53023 16781 ft 280 kts 281°
2026-05-06 00:47 -32.83207 -70.55346 16386 ft 284 kts 281°
2026-05-06 00:47 -32.82981 -70.57696 15962 ft 285 kts 281°
2026-05-06 00:47 -32.82755 -70.60046 15550 ft 287 kts 281°
2026-05-06 00:47 -32.82531 -70.62379 15131 ft 288 kts 281°
2026-05-06 00:48 -32.82304 -70.64745 14713 ft 288 kts 281°
2026-05-06 00:48 -32.82130 -70.67129 14288 ft 293 kts 274°
2026-05-06 00:48 -32.82496 -70.69547 13861 ft 304 kts 256°
2026-05-06 00:48 -32.83529 -70.71745 13380 ft 308 kts 237°
2026-05-06 00:49 -32.85053 -70.73532 12911 ft 305 kts 229°
2026-05-06 00:49 -32.86598 -70.75219 12463 ft 297 kts 229°
2026-05-06 00:49 -32.88098 -70.76865 12039 ft 290 kts 229°
2026-05-06 00:49 -32.89559 -70.78471 11614 ft 280 kts 230°
2026-05-06 00:50 -32.91019 -70.79972 11214 ft 279 kts 221°
2026-05-06 00:50 -32.92774 -70.81061 10786 ft 293 kts 204°
2026-05-06 00:50 -32.94807 -70.81573 10356 ft 303 kts 190°
2026-05-06 00:50 -32.96920 -70.81882 9897 ft 309 kts 190°
2026-05-06 00:51 -32.99078 -70.82198 9405 ft 315 kts 189°
2026-05-06 00:51 -33.01191 -70.82356 8957 ft 319 kts 179°
2026-05-06 00:51 -33.03386 -70.82230 8506 ft 320 kts 179°
2026-05-06 00:51 -33.05619 -70.82108 8042 ft 322 kts 178°
2026-05-06 00:52 -33.07763 -70.81990 7598 ft 323 kts 178°
2026-05-06 00:52 -33.10031 -70.81862 7131 ft 325 kts 178°
2026-05-06 00:52 -33.12253 -70.81734 6663 ft 313 kts 178°
2026-05-06 00:52 -33.14384 -70.81610 6217 ft 301 kts 178°
2026-05-06 00:53 -33.16437 -70.81491 5780 ft 289 kts 178°
2026-05-06 00:53 -33.18389 -70.81379 5269 ft 283 kts 177°
2026-05-06 00:53 -33.20323 -70.81274 4856 ft 273 kts 177°
2026-05-06 00:53 -33.22177 -70.81175 4496 ft 261 kts 177°
2026-05-06 00:54 -33.23956 -70.81080 4152 ft 250 kts 177°
2026-05-06 00:54 -33.25617 -70.80992 3833 ft 229 kts 177°
2026-05-06 00:54 -33.27149 -70.80910 3541 ft 207 kts 177°
2026-05-06 00:54 -33.28550 -70.80835 3317 ft 193 kts 177°
2026-05-06 00:55 -33.29847 -70.80766 3029 ft 178 kts 176°
2026-05-06 00:55 -33.31010 -70.80704 2805 ft 162 kts 176°
2026-05-06 00:55 -33.32061 -70.80648 2612 ft 143 kts 176°
2026-05-06 00:55 -33.33026 -70.80596 2425 ft 136 kts 176°
2026-05-06 00:56 -33.33963 -70.80546 2238 ft 134 kts 176°
2026-05-06 00:56 -33.34888 -70.80496 2060 ft 132 kts 175°
2026-05-06 00:56 -33.35807 -70.80446 1877 ft 131 kts 175°
2026-05-06 00:56 -33.36717 -70.80397 1707 ft 130 kts 175°
2026-05-06 00:57 -33.37608 -70.80344 1569 ft 122 kts 175°
2026-05-06 00:57 -33.38226 -70.80303 1565 ft 47 kts 178°
2026-05-06 00:57 -33.38547 -70.80293 1568 ft 45 kts 178°
2026-05-06 00:57 -33.38755 -70.80280 1569 ft 45 kts 177°
2026-05-06 00:58 -33.39017 -70.80267 1567 ft 21 kts 178°
2026-05-06 00:58 -33.39232 -70.80246 1567 ft 25 kts 167°
2026-05-06 00:58 -33.39350 -70.80179 1565 ft 20 kts 157°
2026-05-06 00:58 -33.39420 -70.80125 1562 ft 12 kts 144°
2026-05-06 00:59 -33.39455 -70.80096 1561 ft 6 kts 145°
2026-05-06 00:59 -33.39504 -70.80053 1560 ft 11 kts 136°
2026-05-06 00:59 -33.39531 -70.79952 1559 ft 15 kts 90°
2026-05-06 00:59 -33.39527 -70.79836 1558 ft 7 kts 91°
2026-05-06 01:00 -33.39568 -70.79809 1558 ft 9 kts 169°
2026-05-06 01:00 -33.39601 -70.79806 1558 ft 4 kts 176°
2026-05-06 01:00 -33.39615 -70.79805 1558 ft 1 kts 177°